• In Hungary
  • List of Countries
  • For 7 days
  • Water Temperature
  • Satellite Maps
  • Weather Map
  • News
  • Weather Widgets
  • user-avatar
    Login

    Hourly Weather Wien

    Today, 16 August, Wednesday

    Time Temperature Precipitation Wind Pressure Humidity
    00:00 +21°C° 0 mm 1 mps 746 mmHg 58%
    01:00 +21°C° 0 mm 1 mps 746 mmHg 60%
    02:00 +20°C° 0 mm 1 mps 746 mmHg 60%
    03:00 +20°C° 0 mm 1 mps 746 mmHg 61%
    04:00 +20°C° 0 mm 1 mps 746 mmHg 62%
    05:00 +21°C° 0 mm 1 mps 746 mmHg 60%
    06:00 +22°C° 0 mm 1 mps 746 mmHg 58%
    07:00 +23°C° 0 mm 1 mps 747 mmHg 60%
    08:00 +24°C° 0 mm 2 mps 747 mmHg 57%
    09:00 +26°C° 0 mm 3 mps 747 mmHg 55%
    10:00 +27°C° 0 mm 3 mps 747 mmHg 53%
    11:00 +28°C° 0.1 mm 3 mps 747 mmHg 51%
    12:00 +29°C° 0.1 mm 3 mps 747 mmHg 50%
    13:00 +30°C° 0.1 mm 3 mps 746 mmHg 48%
    14:00 +30°C° 0.2 mm 3 mps 746 mmHg 49%
    15:00 +30°C° 0.2 mm 3 mps 746 mmHg 50%
    16:00 +29°C° 0.2 mm 3 mps 746 mmHg 51%
    17:00 +28°C° 0.1 mm 3 mps 746 mmHg 57%
    18:00 +26°C° 0.1 mm 2 mps 746 mmHg 62%
    19:00 +25°C° 0.1 mm 2 mps 746 mmHg 67%
    20:00 +24°C° 0.3 mm 2 mps 746 mmHg 71%
    21:00 +23°C° 0.3 mm 2 mps 746 mmHg 76%
    22:00 +21°C° 0.3 mm 2 mps 747 mmHg 80%
    23:00 +20°C° 0 mm 2 mps 747 mmHg 82%

    Tomorrow, 17 August, Thursday

    Time Temperature Precipitation Wind Pressure Humidity
    00:00 +20°C° 0 mm 2 mps 747 mmHg 84%
    01:00 +19°C° 0 mm 2 mps 747 mmHg 86%
    02:00 +19°C° 0 mm 2 mps 747 mmHg 87%
    03:00 +19°C° 0 mm 2 mps 747 mmHg 88%
    04:00 +18°C° 0 mm 2 mps 746 mmHg 89%
    05:00 +19°C° 0 mm 2 mps 746 mmHg 86%
    06:00 +20°C° 0 mm 2 mps 747 mmHg 82%
    07:00 +21°C° 0 mm 2 mps 747 mmHg 78%
    08:00 +24°C° 0 mm 2 mps 747 mmHg 70%
    09:00 +25°C° 0 mm 2 mps 747 mmHg 62%
    10:00 +27°C° 0 mm 2 mps 747 mmHg 54%
    11:00 +28°C° 0 mm 2 mps 746 mmHg 48%
    12:00 +30°C° 0 mm 2 mps 746 mmHg 43%
    13:00 +31°C° 0 mm 2 mps 745 mmHg 38%
    14:00 +31°C° 0 mm 2 mps 745 mmHg 36%
    15:00 +31°C° 0 mm 1 mps 745 mmHg 35%
    16:00 +31°C° 0 mm 1 mps 745 mmHg 34%
    17:00 +29°C° 0 mm 1 mps 745 mmHg 39%
    18:00 +27°C° 0 mm 1 mps 745 mmHg 44%
    19:00 +26°C° 0 mm 1 mps 745 mmHg 49%
    20:00 +25°C° 0 mm 1 mps 745 mmHg 51%
    21:00 +24°C° 0 mm 1 mps 745 mmHg 53%
    22:00 +23°C° 0 mm 1 mps 745 mmHg 55%
    23:00 +23°C° 0 mm 1 mps 745 mmHg 57%

    Day after tomorrow, 18 August, Friday

    Time Temperature Precipitation Wind Pressure Humidity
    00:00 +22°C° 0 mm 1 mps 745 mmHg 59%
    01:00 +22°C° 0 mm 1 mps 745 mmHg 62%
    02:00 +19°C° 0 mm 0 mps 745 mmHg 64%
    03:00 +19°C° 0 mm 0 mps 745 mmHg 66%
    04:00 +18°C° 0 mm 0 mps 745 mmHg 68%
    05:00 +20°C° 0 mm 0 mps 745 mmHg 65%
    06:00 +21°C° 0 mm 0 mps 745 mmHg 63%
    07:00 +22°C° 0 mm 0 mps 745 mmHg 60%
    08:00 +26°C° 0 mm 1 mps 745 mmHg 54%
    09:00 +28°C° 0 mm 1 mps 745 mmHg 48%
    10:00 +30°C° 0 mm 1 mps 745 mmHg 42%
    11:00 +32°C° 0 mm 2 mps 744 mmHg 39%
    12:00 +34°C° 0 mm 2 mps 744 mmHg 36%
    13:00 +35°C° 0 mm 2 mps 744 mmHg 33%
    14:00 +35°C° 0 mm 3 mps 743 mmHg 32%
    15:00 +36°C° 0 mm 3 mps 743 mmHg 31%
    16:00 +36°C° 0 mm 3 mps 742 mmHg 30%
    17:00 +34°C° 0 mm 3 mps 742 mmHg 35%
    18:00 +31°C° 0 mm 2 mps 742 mmHg 40%
    19:00 +29°C° 0 mm 2 mps 742 mmHg 44%
    20:00 +28°C° 0 mm 2 mps 742 mmHg 46%
    21:00 +27°C° 0 mm 2 mps 742 mmHg 48%
    22:00 +26°C° 0 mm 2 mps 742 mmHg 50%
    23:00 +25°C° 0 mm 2 mps 741 mmHg 50%

    19 August, Saturday

    Time Temperature Precipitation Wind Pressure Humidity
    00:00 +25°C° 0 mm 2 mps 741 mmHg 51%
    01:00 +24°C° 0 mm 2 mps 741 mmHg 52%
    02:00 +24°C° 0 mm 3 mps 741 mmHg 54%
    03:00 +22°C° 0 mm 3 mps 741 mmHg 57%
    04:00 +22°C° 0 mm 3 mps 742 mmHg 59%
    05:00 +22°C° 0 mm 4 mps 742 mmHg 63%
    06:00 +22°C° 0 mm 5 mps 743 mmHg 66%
    07:00 +22°C° 0 mm 6 mps 743 mmHg 70%
    08:00 +23°C° 0 mm 6 mps 743 mmHg 66%
    09:00 +23°C° 0 mm 7 mps 744 mmHg 63%
    10:00 +24°C° 0 mm 7 mps 744 mmHg 60%
    11:00 +23°C° 0.1 mm 7 mps 744 mmHg 62%
    12:00 +23°C° 0.1 mm 6 mps 744 mmHg 64%
    13:00 +22°C° 0.1 mm 6 mps 744 mmHg 65%
    14:00 +21°C° 0.7 mm 6 mps 744 mmHg 70%
    15:00 +20°C° 0.7 mm 6 mps 744 mmHg 74%
    16:00 +19°C° 0.7 mm 6 mps 744 mmHg 78%
    17:00 +19°C° 2.3 mm 5 mps 745 mmHg 82%
    18:00 +18°C° 2.3 mm 4 mps 745 mmHg 85%
    19:00 +17°C° 2.3 mm 4 mps 745 mmHg 89%
    20:00 +17°C° 1.2 mm 3 mps 746 mmHg 89%
    21:00 +17°C° 1.2 mm 3 mps 746 mmHg 90%
    22:00 +17°C° 1.2 mm 3 mps 746 mmHg 90%
    23:00 +16°C° 0 mm 3 mps 746 mmHg 90%

    20 August, Sunday

    Time Temperature Precipitation Wind Pressure Humidity
    00:00 +15°C° 0 mm 4 mps 746 mmHg 90%
    01:00 +15°C° 0 mm 4 mps 746 mmHg 90%
    02:00 +15°C° 0 mm 4 mps 746 mmHg 88%
    03:00 +15°C° 0 mm 4 mps 746 mmHg 87%
    04:00 +15°C° 0 mm 4 mps 746 mmHg 85%
    05:00 +15°C° 0 mm 4 mps 746 mmHg 82%
    06:00 +15°C° 0 mm 5 mps 747 mmHg 79%
    07:00 +15°C° 0 mm 5 mps 747 mmHg 76%
    08:00 +17°C° 0 mm 6 mps 747 mmHg 69%
    09:00 +19°C° 0 mm 6 mps 747 mmHg 61%
    10:00 +21°C° 0 mm 6 mps 748 mmHg 54%
    11:00 +21°C° 0.1 mm 6 mps 748 mmHg 52%
    12:00 +22°C° 0.1 mm 6 mps 747 mmHg 50%
    13:00 +23°C° 0.1 mm 6 mps 747 mmHg 49%
    14:00 +23°C° 0 mm 6 mps 747 mmHg 49%
    15:00 +23°C° 0 mm 6 mps 747 mmHg 49%
    16:00 +23°C° 0 mm 6 mps 747 mmHg 49%
    17:00 +21°C° 0 mm 5 mps 747 mmHg 53%
    18:00 +20°C° 0 mm 4 mps 748 mmHg 57%
    19:00 +18°C° 0 mm 3 mps 748 mmHg 62%
    20:00 +18°C° 0 mm 3 mps 748 mmHg 65%
    21:00 +17°C° 0 mm 3 mps 748 mmHg 67%
    22:00 +16°C° 0 mm 3 mps 749 mmHg 70%
    23:00 +14°C° 0 mm 3 mps 749 mmHg 71%

    21 August, Monday

    Time Temperature Precipitation Wind Pressure Humidity
    00:00 +14°C° 0 mm 3 mps 749 mmHg 73%
    01:00 +13°C° 0 mm 3 mps 748 mmHg 74%
    02:00 +13°C° 0 mm 3 mps 748 mmHg 75%
    03:00 +13°C° 0 mm 3 mps 748 mmHg 75%
    04:00 +13°C° 0 mm 3 mps 748 mmHg 76%
    05:00 +13°C° 0 mm 3 mps 748 mmHg 73%
    06:00 +14°C° 0 mm 4 mps 748 mmHg 69%
    07:00 +15°C° 0 mm 4 mps 748 mmHg 66%
    08:00 +18°C° 0 mm 4 mps 748 mmHg 59%
    09:00 +20°C° 0 mm 4 mps 748 mmHg 53%
    10:00 +22°C° 0 mm 4 mps 748 mmHg 46%
    11:00 +23°C° 0 mm 4 mps 747 mmHg 43%
    12:00 +25°C° 0 mm 4 mps 747 mmHg 39%
    13:00 +26°C° 0 mm 4 mps 747 mmHg 36%
    14:00 +26°C° 0 mm 4 mps 746 mmHg 36%
    15:00 +26°C° 0 mm 4 mps 746 mmHg 35%
    16:00 +26°C° 0 mm 3 mps 746 mmHg 35%
    17:00 +24°C° 0 mm 3 mps 746 mmHg 41%
    18:00 +21°C° 0 mm 2 mps 746 mmHg 46%
    19:00 +19°C° 0 mm 2 mps 746 mmHg 52%
    20:00 +19°C° 0 mm 2 mps 746 mmHg 55%
    21:00 +18°C° 0 mm 2 mps 746 mmHg 57%
    22:00 +18°C° 0 mm 1 mps 746 mmHg 60%
    23:00 +18°C° 0 mm 1 mps 746 mmHg 61%
    Show more